Location: Songkhla
(7.2000°N, 100.6000°E)
Time: 03:48:08
(UTC+07:00)

BRICSAT 2 - Pass Details

Date: 25 June 2021
Orbit: 295 x 638 km, 28.5° (Epoch: 28 July)

Event Time Altitude Azimuth Distance (km) Brightness Sun altitude
Rises 17:48:07 0° 318° (NW) 2,179 ? 10.2°
Reaches altitude 10° 17:50:20 10° 333° (NNW) 1,396 ? 9.7°
Maximum altitude 17:52:57 23° 29° (NNE) 921 ? 9.1°
Drops below altitude 10° 17:55:51 10° 84° (E) 1,563 ? 8.4°
Sets 17:58:28 0° 98° (E) 2,522 ? 7.8°
